HAZ5639 ZSSS-ZPPP

Flight info

Callsign HAZ5639
Flight time 3h 29m
Altitude 30100
Route POMOK G330 PIMOL V14 NOBEM W73 MADUK W51 LEGIV W164 ADGOL W50 XSH W80 IDGAG A581 QNX W136 XISLI XIS1J
Aircraft A321/M-SDE3FGHIRWY/LB1

Departure

Time 2026-05-09 09:56
Airport Shanghai Hongqiao International Airport (ZSSS)

Arrival

Time 2026-05-09 13:25
Airport Kunming Changshui International Airport (ZPPP)
Time Latitude Longitude Altitude Speed Heading
2026-05-09 07:38 31.19328 121.32755 18 ft 0 kts 356°
2026-05-09 09:41 31.19318 121.32755 18 ft 2 kts 356°
2026-05-09 09:42 31.19308 121.32756 18 ft 2 kts 356°
2026-05-09 09:42 31.19293 121.32758 18 ft 2 kts 356°
2026-05-09 09:42 31.19278 121.32758 18 ft 0 kts 356°
2026-05-09 09:42 31.19272 121.32759 18 ft 2 kts 356°
2026-05-09 09:43 31.19262 121.32760 18 ft 2 kts 356°
2026-05-09 09:43 31.19242 121.32753 18 ft 2 kts 41°
2026-05-09 09:43 31.19233 121.32739 18 ft 2 kts 72°
2026-05-09 09:43 31.19232 121.32729 18 ft 1 kts 88°
2026-05-09 09:44 31.19233 121.32719 18 ft 1 kts 100°
2026-05-09 09:44 31.19233 121.32713 18 ft 0 kts 88°
2026-05-09 09:46 31.19233 121.32719 18 ft 1 kts 88°
2026-05-09 09:46 31.19233 121.32729 18 ft 2 kts 88°
2026-05-09 09:46 31.19234 121.32752 18 ft 3 kts 89°
2026-05-09 09:47 31.19234 121.32794 18 ft 4 kts 90°
2026-05-09 09:47 31.19234 121.32837 18 ft 5 kts 91°
2026-05-09 09:47 31.19233 121.32890 18 ft 7 kts 90°
2026-05-09 09:47 31.19236 121.32951 18 ft 7 kts 80°
2026-05-09 09:48 31.19242 121.32995 18 ft 8 kts 82°
2026-05-09 09:48 31.19250 121.33069 18 ft 9 kts 83°
2026-05-09 09:48 31.19269 121.33112 18 ft 5 kts 344°
2026-05-09 09:48 31.19312 121.33095 18 ft 7 kts 342°
2026-05-09 09:49 31.19368 121.33085 18 ft 8 kts 355°
2026-05-09 09:49 31.19436 121.33079 18 ft 10 kts 355°
2026-05-09 09:49 31.19542 121.33070 18 ft 12 kts 356°
2026-05-09 09:49 31.19629 121.33065 18 ft 12 kts 356°
2026-05-09 09:50 31.19711 121.33058 18 ft 11 kts 356°
2026-05-09 09:50 31.19790 121.33053 18 ft 10 kts 356°
2026-05-09 09:50 31.19866 121.33048 18 ft 11 kts 356°
2026-05-09 09:50 31.19946 121.33044 18 ft 11 kts 358°
2026-05-09 09:51 31.20028 121.33040 18 ft 12 kts 358°
2026-05-09 09:51 31.20114 121.33036 18 ft 12 kts 357°
2026-05-09 09:51 31.20173 121.33032 18 ft 12 kts 357°
2026-05-09 09:51 31.20293 121.33026 18 ft 13 kts 356°
2026-05-09 09:52 31.20388 121.33022 17 ft 14 kts 357°
2026-05-09 09:52 31.20494 121.33015 15 ft 15 kts 356°
2026-05-09 09:52 31.20565 121.33010 17 ft 15 kts 356°
2026-05-09 09:52 31.20698 121.33003 18 ft 13 kts 358°
2026-05-09 09:53 31.20763 121.33001 18 ft 14 kts 358°
2026-05-09 09:53 31.20896 121.32993 18 ft 14 kts 356°
2026-05-09 09:53 31.20996 121.32987 18 ft 14 kts 357°
2026-05-09 09:53 31.21063 121.32983 18 ft 14 kts 356°
2026-05-09 09:54 31.21200 121.32979 18 ft 14 kts 356°
2026-05-09 09:54 31.21278 121.32989 18 ft 9 kts 45°
2026-05-09 09:54 31.21290 121.33037 18 ft 9 kts 86°
2026-05-09 09:54 31.21293 121.33118 18 ft 10 kts 89°
2026-05-09 09:55 31.21221 121.33167 18 ft 10 kts 176°
2026-05-09 09:55 31.21080 121.33175 18 ft 49 kts 176°
2026-05-09 09:55 31.20462 121.33211 19 ft 125 kts 177°
2026-05-09 09:55 31.19374 121.33270 130 ft 176 kts 175°
2026-05-09 09:56 31.18174 121.33360 981 ft 173 kts 173°
2026-05-09 09:56 31.16993 121.33414 1890 ft 172 kts 174°
2026-05-09 09:56 31.16205 121.33439 2451 ft 173 kts 174°
2026-05-09 09:56 31.14629 121.33495 3423 ft 170 kts 175°
2026-05-09 09:57 31.13807 121.33528 3636 ft 178 kts 175°
2026-05-09 09:57 31.12066 121.33601 4007 ft 196 kts 175°
2026-05-09 09:57 31.10646 121.33662 4288 ft 211 kts 175°
2026-05-09 09:57 31.09112 121.33730 4509 ft 230 kts 175°
2026-05-09 09:58 31.08010 121.33777 4695 ft 241 kts 177°
2026-05-09 09:58 31.05780 121.33164 4886 ft 264 kts 211°
2026-05-09 09:58 31.04844 121.32213 4903 ft 270 kts 230°
2026-05-09 09:58 31.04044 121.30212 4910 ft 276 kts 259°
2026-05-09 09:59 31.04284 121.27246 4949 ft 282 kts 282°
2026-05-09 09:59 31.04586 121.25755 5199 ft 287 kts 282°
2026-05-09 09:59 31.05169 121.22752 6183 ft 285 kts 281°
2026-05-09 09:59 31.05591 121.20501 6851 ft 286 kts 281°
2026-05-09 10:00 31.05875 121.18965 7279 ft 287 kts 281°
2026-05-09 10:00 31.06444 121.15923 8141 ft 289 kts 284°
2026-05-09 10:00 31.07343 121.13866 8675 ft 292 kts 314°
2026-05-09 10:00 31.08412 121.12891 9093 ft 293 kts 333°
2026-05-09 10:01 31.10356 121.12285 9714 ft 292 kts 357°
2026-05-09 10:01 31.12375 121.12228 10320 ft 293 kts 359°
2026-05-09 10:01 31.15169 121.12131 10735 ft 308 kts 358°
2026-05-09 10:01 31.17357 121.12026 10981 ft 322 kts 357°
2026-05-09 10:02 31.19640 121.11901 11203 ft 335 kts 356°
2026-05-09 10:02 31.22031 121.11767 11431 ft 348 kts 356°
2026-05-09 10:02 31.24497 121.11627 11663 ft 361 kts 356°
2026-05-09 10:02 31.27058 121.11481 11860 ft 372 kts 356°
2026-05-09 10:03 31.28781 121.11383 11884 ft 374 kts 356°
2026-05-09 10:03 31.32251 121.11182 11897 ft 374 kts 356°
2026-05-09 10:03 31.33984 121.11097 11864 ft 374 kts 358°
2026-05-09 10:03 31.37473 121.11164 11883 ft 375 kts
2026-05-09 10:04 31.40085 121.11332 11905 ft 374 kts
2026-05-09 10:04 31.42685 121.11477 11894 ft 374 kts 359°
2026-05-09 10:04 31.44401 121.11330 11907 ft 376 kts 351°
2026-05-09 10:04 31.47810 121.10230 12488 ft 379 kts 337°
2026-05-09 10:05 31.49416 121.09418 12889 ft 378 kts 335°
2026-05-09 10:05 31.51792 121.08147 13411 ft 379 kts 335°
2026-05-09 10:05 31.54217 121.06843 13905 ft 381 kts 335°
2026-05-09 10:05 31.56620 121.05557 14372 ft 383 kts 334°
2026-05-09 10:06 31.59054 121.04257 14849 ft 384 kts 334°
2026-05-09 10:06 31.61490 121.02958 15293 ft 386 kts 334°
2026-05-09 10:06 31.64755 121.01217 15866 ft 389 kts 334°
2026-05-09 10:06 31.67238 120.99893 16311 ft 391 kts 334°
2026-05-09 10:07 31.68869 120.99023 16584 ft 392 kts 334°
2026-05-09 10:07 31.72200 120.97245 17125 ft 395 kts 334°
2026-05-09 10:07 31.73868 120.96354 17389 ft 396 kts 334°
2026-05-09 10:07 31.76390 120.95006 17790 ft 397 kts 334°
2026-05-09 10:08 31.79735 120.93218 18305 ft 399 kts 333°
2026-05-09 10:08 31.82281 120.91855 18667 ft 401 kts 333°
2026-05-09 10:08 31.84809 120.90499 19031 ft 403 kts 333°
2026-05-09 10:08 31.86519 120.89582 19267 ft 404 kts 333°
2026-05-09 10:09 31.89077 120.88210 19625 ft 405 kts 333°
2026-05-09 10:09 31.92493 120.86375 20076 ft 407 kts 333°
2026-05-09 10:09 31.95070 120.84992 20409 ft 409 kts 332°
2026-05-09 10:09 31.97680 120.83593 20742 ft 410 kts 332°
2026-05-09 10:10 31.99412 120.82664 20945 ft 412 kts 332°
2026-05-09 10:10 32.02027 120.81258 21262 ft 413 kts 332°
2026-05-09 10:10 32.05518 120.79377 21702 ft 415 kts 332°
2026-05-09 10:10 32.07247 120.78444 21899 ft 416 kts 332°
2026-05-09 10:11 32.09902 120.77013 22205 ft 417 kts 331°
2026-05-09 10:11 32.12497 120.75540 22482 ft 416 kts 326°
2026-05-09 10:11 32.14726 120.73399 22736 ft 411 kts 309°
2026-05-09 10:11 32.16673 120.69591 23145 ft 407 kts 290°
2026-05-09 10:12 32.17284 120.66352 23438 ft 407 kts 277°
2026-05-09 10:12 32.17562 120.63049 23762 ft 407 kts 276°
2026-05-09 10:12 32.17746 120.60834 23945 ft 408 kts 276°
2026-05-09 10:12 32.18027 120.57474 24220 ft 409 kts 276°
2026-05-09 10:13 32.18306 120.54134 24502 ft 410 kts 276°
2026-05-09 10:13 32.18583 120.50767 24800 ft 410 kts 276°
2026-05-09 10:13 32.18862 120.47403 25072 ft 411 kts 276°
2026-05-09 10:13 32.19133 120.44098 25342 ft 412 kts 276°
2026-05-09 10:14 32.19498 120.39611 25711 ft 412 kts 276°
2026-05-09 10:14 32.19774 120.36229 25951 ft 413 kts 276°
2026-05-09 10:14 32.19956 120.33980 26122 ft 413 kts 276°
2026-05-09 10:14 32.20231 120.30623 26426 ft 413 kts 275°
2026-05-09 10:15 32.20504 120.27283 26802 ft 411 kts 275°
2026-05-09 10:15 32.20781 120.23922 27203 ft 408 kts 275°
2026-05-09 10:15 32.21146 120.19507 27733 ft 404 kts 275°
2026-05-09 10:15 32.21410 120.16264 28096 ft 402 kts 275°
2026-05-09 10:16 32.21587 120.14074 28335 ft 400 kts 275°
2026-05-09 10:16 32.21940 120.09718 28784 ft 398 kts 275°
2026-05-09 10:16 32.22114 120.07572 28966 ft 397 kts 275°
2026-05-09 10:16 32.22459 120.03287 29336 ft 397 kts 275°
2026-05-09 10:17 32.22634 120.01101 29537 ft 396 kts 275°
2026-05-09 10:17 32.22973 119.96819 29975 ft 394 kts 275°
2026-05-09 10:17 32.23142 119.94682 30196 ft 393 kts 275°
2026-05-09 10:17 32.23393 119.91486 30517 ft 391 kts 275°
2026-05-09 10:18 32.23724 119.87269 30911 ft 389 kts 274°
2026-05-09 10:18 32.23862 119.84076 31169 ft 389 kts 272°
2026-05-09 10:18 32.23849 119.80888 31438 ft 388 kts 269°
2026-05-09 10:18 32.23760 119.78775 31620 ft 388 kts 268°
2026-05-09 10:19 32.23394 119.74599 31973 ft 387 kts 264°
2026-05-09 10:19 32.22946 119.71451 32240 ft 387 kts 262°
2026-05-09 10:19 32.22390 119.68514 32438 ft 388 kts 259°
2026-05-09 10:19 32.21927 119.66482 32543 ft 389 kts 257°
2026-05-09 10:20 32.20860 119.62405 32765 ft 391 kts 256°
2026-05-09 10:20 32.20328 119.60399 32881 ft 391 kts 256°
2026-05-09 10:20 32.19519 119.57348 33053 ft 391 kts 256°
2026-05-09 10:20 32.18425 119.53258 33261 ft 392 kts 256°
2026-05-09 10:21 32.17875 119.51217 33368 ft 392 kts 256°
2026-05-09 10:21 32.16779 119.47121 33521 ft 394 kts 256°
2026-05-09 10:21 32.15963 119.44048 33648 ft 395 kts 256°
2026-05-09 10:21 32.15144 119.40947 33762 ft 396 kts 256°
2026-05-09 10:22 32.14321 119.37838 33904 ft 396 kts 256°
2026-05-09 10:22 32.13506 119.34764 34060 ft 395 kts 256°
2026-05-09 10:22 32.12687 119.31682 34115 ft 395 kts 256°
2026-05-09 10:23 32.11315 119.26536 34123 ft 394 kts 256°
2026-05-09 10:23 32.09671 119.20377 34129 ft 395 kts 256°
2026-05-09 10:24 32.08025 119.14226 34129 ft 396 kts 256°
2026-05-09 10:24 32.06370 119.08050 34131 ft 396 kts 256°
2026-05-09 10:25 32.04703 119.01845 34129 ft 397 kts 256°
2026-05-09 10:25 32.03037 118.95664 34129 ft 398 kts 256°
2026-05-09 10:26 32.01366 118.89475 34129 ft 397 kts 256°
2026-05-09 10:26 31.99677 118.83282 34123 ft 398 kts 255°
2026-05-09 10:27 31.97236 118.76212 34121 ft 401 kts 250°
2026-05-09 10:27 31.95344 118.71249 34120 ft 401 kts 250°
2026-05-09 10:28 31.93054 118.65275 34116 ft 402 kts 250°
2026-05-09 10:28 31.90388 118.58324 34113 ft 401 kts 250°
2026-05-09 10:29 31.88459 118.53303 34111 ft 402 kts 250°
2026-05-09 10:29 31.86163 118.47337 34110 ft 401 kts 250°
2026-05-09 10:30 31.83480 118.40389 34112 ft 401 kts 250°
2026-05-09 10:30 31.81562 118.35421 34110 ft 401 kts 250°
2026-05-09 10:31 31.79253 118.29459 34111 ft 402 kts 250°
2026-05-09 10:31 31.76927 118.23501 34106 ft 402 kts 250°
2026-05-09 10:32 31.74207 118.16550 34101 ft 402 kts 250°
2026-05-09 10:32 31.72435 118.11501 34102 ft 400 kts 253°
2026-05-09 10:33 31.70576 118.04301 34101 ft 396 kts 259°
2026-05-09 10:33 31.69492 117.99067 34104 ft 397 kts 259°
2026-05-09 10:34 31.68189 117.92794 34107 ft 397 kts 259°
2026-05-09 10:34 31.66016 117.82310 34103 ft 399 kts 259°
2026-05-09 10:35 31.64930 117.77067 34106 ft 397 kts 259°
2026-05-09 10:35 31.63399 117.69730 34104 ft 397 kts 259°
2026-05-09 10:36 31.62304 117.64487 34103 ft 397 kts 259°
2026-05-09 10:36 31.60994 117.58209 34101 ft 398 kts 260°
2026-05-09 10:37 31.59670 117.50841 34109 ft 397 kts 261°
2026-05-09 10:37 31.58728 117.45551 34105 ft 397 kts 261°
2026-05-09 10:38 31.57602 117.39256 34103 ft 396 kts 261°
2026-05-09 10:38 31.56281 117.31876 34099 ft 396 kts 261°
2026-05-09 10:39 31.55348 117.26650 34096 ft 397 kts 261°
2026-05-09 10:39 31.54041 117.19225 34087 ft 398 kts 261°
2026-05-09 10:40 31.53112 117.13976 34089 ft 397 kts 261°
2026-05-09 10:40 31.51988 117.07641 34086 ft 397 kts 261°
2026-05-09 10:41 31.50667 117.00262 34086 ft 398 kts 261°
2026-05-09 10:41 31.49721 116.95030 34090 ft 399 kts 259°
2026-05-09 10:42 31.48114 116.88796 34093 ft 402 kts 253°
2026-05-09 10:42 31.45829 116.82781 34091 ft 405 kts 247°
2026-05-09 10:43 31.42904 116.77121 34091 ft 409 kts 240°
2026-05-09 10:43 31.38924 116.70899 34099 ft 410 kts 238°
2026-05-09 10:44 31.36030 116.66455 34103 ft 411 kts 239°
2026-05-09 10:44 31.32001 116.60291 34112 ft 411 kts 238°
2026-05-09 10:46 31.23918 116.47982 34141 ft 411 kts 238°
2026-05-09 10:46 31.20439 116.42694 34145 ft 411 kts 239°
2026-05-09 10:47 31.16968 116.37426 34150 ft 409 kts 238°
2026-05-09 10:47 31.13489 116.32159 34159 ft 411 kts 238°
2026-05-09 10:48 31.10002 116.26885 34160 ft 412 kts 238°
2026-05-09 10:48 31.06517 116.21614 34163 ft 411 kts 238°
2026-05-09 10:49 31.03020 116.16338 34169 ft 410 kts 238°
2026-05-09 10:49 30.98965 116.10220 34177 ft 410 kts 238°
2026-05-09 10:50 30.96063 116.05856 34174 ft 409 kts 239°
2026-05-09 10:50 30.92587 116.00626 34154 ft 408 kts 239°
2026-05-09 10:51 30.89093 115.95379 34148 ft 407 kts 239°
2026-05-09 10:51 30.85639 115.90202 34149 ft 406 kts 238°
2026-05-09 10:52 30.82193 115.84995 34129 ft 406 kts 239°
2026-05-09 10:52 30.78205 115.78941 34124 ft 404 kts 239°
2026-05-09 10:53 30.74817 115.73804 34158 ft 401 kts 239°
2026-05-09 10:53 30.71998 115.69532 34128 ft 401 kts 239°
2026-05-09 10:54 30.68579 115.64372 34127 ft 400 kts 240°
2026-05-09 10:54 30.65190 115.59255 34128 ft 400 kts 240°
2026-05-09 10:55 30.62666 115.55441 34120 ft 399 kts 240°
2026-05-09 10:55 30.59272 115.50324 34131 ft 399 kts 240°
2026-05-09 10:56 30.55895 115.45248 34118 ft 398 kts 240°
2026-05-09 10:56 30.51975 115.39364 34130 ft 396 kts 240°
2026-05-09 10:57 30.48706 115.34282 34118 ft 391 kts 244°
2026-05-09 10:57 30.46627 115.29675 34122 ft 383 kts 253°
2026-05-09 10:58 30.44973 115.22850 34118 ft 376 kts 264°
2026-05-09 10:58 30.44674 115.17854 34110 ft 372 kts 272°
2026-05-09 10:59 30.45214 115.10900 34130 ft 371 kts 277°
2026-05-09 10:59 30.45804 115.04973 34119 ft 374 kts 276°
2026-05-09 11:00 30.46303 115.00016 34121 ft 374 kts 277°
2026-05-09 11:00 30.46910 114.94041 34119 ft 372 kts 277°
2026-05-09 11:01 30.47516 114.88120 34116 ft 371 kts 277°
2026-05-09 11:01 30.48118 114.82172 34121 ft 372 kts 277°
2026-05-09 11:02 30.48718 114.76242 34117 ft 372 kts 277°
2026-05-09 11:02 30.49319 114.70306 34114 ft 372 kts 277°
2026-05-09 11:03 30.49916 114.64375 34115 ft 371 kts 276°
2026-05-09 11:03 30.50503 114.58446 34093 ft 370 kts 277°
2026-05-09 11:04 30.51193 114.51539 34098 ft 372 kts 277°
2026-05-09 11:04 30.51678 114.46620 34108 ft 370 kts 276°
2026-05-09 11:05 30.52263 114.40689 34102 ft 370 kts 277°
2026-05-09 11:05 30.52941 114.33760 34103 ft 371 kts 276°
2026-05-09 11:06 30.53418 114.28852 34101 ft 371 kts 276°
2026-05-09 11:06 30.53991 114.22921 34094 ft 371 kts 277°
2026-05-09 11:07 30.54561 114.16989 34097 ft 371 kts 276°
2026-05-09 11:07 30.55120 114.11067 34090 ft 371 kts 277°
2026-05-09 11:08 30.55697 114.05135 34092 ft 371 kts 277°
2026-05-09 11:08 30.56357 113.98223 34092 ft 370 kts 276°
2026-05-09 11:09 30.56759 113.93256 34091 ft 371 kts 273°
2026-05-09 11:09 30.56512 113.87292 34084 ft 374 kts 265°
2026-05-09 11:10 30.55374 113.81413 34083 ft 377 kts 257°
2026-05-09 11:10 30.53345 113.75786 34088 ft 382 kts 249°
2026-05-09 11:11 30.50568 113.70467 34083 ft 385 kts 245°
2026-05-09 11:11 30.47710 113.65254 34085 ft 386 kts 245°
2026-05-09 11:12 30.44343 113.59169 34084 ft 384 kts 245°
2026-05-09 11:12 30.41954 113.54861 34082 ft 383 kts 244°
2026-05-09 11:13 30.39058 113.49665 34094 ft 384 kts 245°
2026-05-09 11:13 30.36192 113.44524 34085 ft 382 kts 245°
2026-05-09 11:14 30.33298 113.39346 34092 ft 382 kts 245°
2026-05-09 11:14 30.30417 113.34192 34108 ft 381 kts 244°
2026-05-09 11:15 30.27545 113.29067 34083 ft 380 kts 244°
2026-05-09 11:15 30.24686 113.23968 34086 ft 381 kts 244°
2026-05-09 11:16 30.21319 113.17975 34081 ft 379 kts 245°
2026-05-09 11:16 30.18502 113.12849 34084 ft 379 kts 245°
2026-05-09 11:17 30.16151 113.08566 34093 ft 378 kts 245°
2026-05-09 11:17 30.12876 113.02618 34089 ft 378 kts 245°
2026-05-09 11:18 30.10063 112.97520 34087 ft 378 kts 245°
2026-05-09 11:18 30.07692 112.93232 34077 ft 378 kts 245°
2026-05-09 11:19 30.04875 112.88136 34082 ft 376 kts 245°
2026-05-09 11:19 30.01592 112.82217 34076 ft 377 kts 245°
2026-05-09 11:20 29.99245 112.77979 34083 ft 375 kts 245°
2026-05-09 11:20 29.96420 112.72896 34092 ft 376 kts 245°
2026-05-09 11:21 29.93616 112.67851 34097 ft 376 kts 245°
2026-05-09 11:21 29.90322 112.61942 34091 ft 376 kts 245°
2026-05-09 11:22 29.87966 112.57713 34097 ft 376 kts 245°
2026-05-09 11:22 29.85146 112.52661 34094 ft 376 kts 245°
2026-05-09 11:23 29.82306 112.47580 34091 ft 376 kts 245°
2026-05-09 11:23 29.79482 112.42536 34091 ft 376 kts 245°
2026-05-09 11:24 29.76655 112.37493 34095 ft 376 kts 245°
2026-05-09 11:24 29.73826 112.32449 34095 ft 375 kts 244°
2026-05-09 11:25 29.70991 112.27423 34098 ft 376 kts 244°
2026-05-09 11:25 29.68128 112.22361 34100 ft 377 kts 245°
2026-05-09 11:26 29.65278 112.17326 34097 ft 377 kts 244°
2026-05-09 11:26 29.62423 112.12286 34096 ft 376 kts 244°
2026-05-09 11:27 29.59572 112.07269 34099 ft 376 kts 245°
2026-05-09 11:27 29.56702 112.02214 34094 ft 377 kts 244°
2026-05-09 11:28 29.53375 111.96371 34100 ft 376 kts 244°
2026-05-09 11:28 29.50980 111.92168 34096 ft 376 kts 244°
2026-05-09 11:29 29.48125 111.87164 34096 ft 377 kts 244°
2026-05-09 11:29 29.45256 111.82142 34100 ft 377 kts 244°
2026-05-09 11:30 29.42380 111.77112 34100 ft 376 kts 244°
2026-05-09 11:30 29.39528 111.72135 34106 ft 376 kts 244°
2026-05-09 11:31 29.36763 111.67055 34102 ft 373 kts 247°
2026-05-09 11:31 29.34414 111.61794 34105 ft 370 kts 252°
2026-05-09 11:32 29.32447 111.56370 34108 ft 368 kts 253°
2026-05-09 11:32 29.30228 111.50037 34108 ft 368 kts 253°
2026-05-09 11:33 29.28649 111.45524 34106 ft 368 kts 254°
2026-05-09 11:33 29.25808 111.37383 34104 ft 368 kts 254°
2026-05-09 11:34 29.23898 111.31928 34109 ft 368 kts 254°
2026-05-09 11:34 29.21995 111.26485 34104 ft 369 kts 253°
2026-05-09 11:35 29.20100 111.21066 34113 ft 368 kts 253°
2026-05-09 11:35 29.18195 111.15632 34123 ft 368 kts 253°
2026-05-09 11:36 29.16289 111.10215 34122 ft 368 kts 253°
2026-05-09 11:36 29.14385 111.04804 34125 ft 368 kts 253°
2026-05-09 11:37 29.12477 110.99393 34131 ft 367 kts 253°
2026-05-09 11:37 29.10250 110.93081 34130 ft 368 kts 253°
2026-05-09 11:38 29.08649 110.88551 34129 ft 369 kts 253°
2026-05-09 11:38 29.06725 110.83114 34130 ft 369 kts 253°
2026-05-09 11:39 29.04488 110.76816 34135 ft 369 kts 253°
2026-05-09 11:40 29.01923 110.69559 34141 ft 369 kts 253°
2026-05-09 11:40 29.00030 110.64128 34146 ft 369 kts 253°
2026-05-09 11:41 28.98136 110.58716 34149 ft 369 kts 253°
2026-05-09 11:41 28.95915 110.52383 34153 ft 368 kts 253°
2026-05-09 11:42 28.94332 110.47874 34158 ft 369 kts 253°
2026-05-09 11:42 28.92429 110.42474 34160 ft 369 kts 253°
2026-05-09 11:43 28.90511 110.37023 34163 ft 369 kts 253°
2026-05-09 11:43 28.88595 110.31606 34164 ft 370 kts 253°
2026-05-09 11:44 28.86671 110.26163 34164 ft 370 kts 253°
2026-05-09 11:44 28.84747 110.20728 34165 ft 370 kts 253°
2026-05-09 11:45 28.82505 110.14405 34168 ft 370 kts 253°
2026-05-09 11:45 28.80887 110.09853 34168 ft 371 kts 253°
2026-05-09 11:46 28.78959 110.04429 34167 ft 370 kts 253°
2026-05-09 11:46 28.77022 109.98998 34174 ft 372 kts 253°
2026-05-09 11:47 28.75080 109.93549 34169 ft 371 kts 253°
2026-05-09 11:47 28.72812 109.87212 34161 ft 372 kts 253°
2026-05-09 11:48 28.71191 109.82678 34158 ft 371 kts 253°
2026-05-09 11:48 28.68922 109.76354 34151 ft 372 kts 253°
2026-05-09 11:49 28.67298 109.71832 34150 ft 372 kts 252°
2026-05-09 11:49 28.65012 109.65465 34147 ft 371 kts 253°
2026-05-09 11:50 28.63456 109.60913 34147 ft 372 kts 253°
2026-05-09 11:50 28.61585 109.55423 34153 ft 372 kts 253°
2026-05-09 11:51 28.59715 109.49963 34158 ft 372 kts 253°
2026-05-09 11:51 28.57738 109.44505 34166 ft 375 kts 251°
2026-05-09 11:52 28.55446 109.39186 34171 ft 376 kts 250°
2026-05-09 11:52 28.53118 109.33853 34174 ft 376 kts 249°
2026-05-09 11:53 28.50774 109.28517 34170 ft 377 kts 249°
2026-05-09 11:53 28.48435 109.23202 34167 ft 378 kts 249°
2026-05-09 11:54 28.46097 109.17899 34168 ft 378 kts 249°
2026-05-09 11:54 28.43736 109.12551 34174 ft 379 kts 249°
2026-05-09 11:55 28.40993 109.06349 34177 ft 378 kts 249°
2026-05-09 11:56 28.34280 108.91249 34188 ft 379 kts 249°
2026-05-09 11:57 28.31922 108.85955 34196 ft 379 kts 249°
2026-05-09 11:57 28.29533 108.80606 34202 ft 379 kts 249°
2026-05-09 11:58 28.27157 108.75276 34209 ft 379 kts 249°
2026-05-09 11:58 28.24788 108.69984 34208 ft 379 kts 249°
2026-05-09 11:59 28.22400 108.64652 34209 ft 379 kts 248°
2026-05-09 11:59 28.20000 108.59308 34206 ft 380 kts 249°
2026-05-09 12:00 28.17621 108.54014 34202 ft 380 kts 249°
2026-05-09 12:00 28.15222 108.48675 34198 ft 380 kts 248°
2026-05-09 12:01 28.12823 108.43352 34197 ft 381 kts 249°
2026-05-09 12:01 28.10418 108.38018 34198 ft 380 kts 248°
2026-05-09 12:02 28.08021 108.32704 34200 ft 381 kts 248°
2026-05-09 12:02 28.05614 108.27380 34201 ft 381 kts 248°
2026-05-09 12:03 28.03202 108.22050 34199 ft 381 kts 248°
2026-05-09 12:03 28.00791 108.16732 34205 ft 381 kts 248°
2026-05-09 12:04 27.98368 108.11394 34209 ft 381 kts 248°
2026-05-09 12:04 27.95959 108.06091 34209 ft 381 kts 248°
2026-05-09 12:05 27.93141 107.99899 34209 ft 381 kts 247°
2026-05-09 12:05 27.91112 107.95452 34212 ft 381 kts 247°
2026-05-09 12:06 27.88671 107.90107 34215 ft 381 kts 248°
2026-05-09 12:06 27.86249 107.84808 34223 ft 382 kts 248°
2026-05-09 12:07 27.83821 107.79501 34228 ft 382 kts 247°
2026-05-09 12:07 27.81004 107.73255 34232 ft 382 kts 248°
2026-05-09 12:08 27.79029 107.68811 34232 ft 382 kts 248°
2026-05-09 12:08 27.76648 107.63464 34231 ft 383 kts 248°
2026-05-09 12:09 27.74258 107.58110 34228 ft 383 kts 248°
2026-05-09 12:09 27.71846 107.52726 34226 ft 383 kts 248°
2026-05-09 12:10 27.67052 107.42035 34228 ft 382 kts 248°
2026-05-09 12:11 27.64663 107.36719 34229 ft 383 kts 248°
2026-05-09 12:11 27.62257 107.31374 34231 ft 383 kts 248°
2026-05-09 12:12 27.59841 107.26013 34232 ft 383 kts 247°
2026-05-09 12:12 27.57431 107.20675 34235 ft 383 kts 247°
2026-05-09 12:13 27.55014 107.15308 34237 ft 384 kts 247°
2026-05-09 12:13 27.52601 107.09964 34237 ft 384 kts 247°
2026-05-09 12:14 27.50169 107.04590 34237 ft 384 kts 247°
2026-05-09 12:14 27.47740 106.99228 34239 ft 385 kts 247°
2026-05-09 12:15 27.45341 106.93866 34239 ft 385 kts 247°
2026-05-09 12:15 27.42959 106.88521 34240 ft 384 kts 247°
2026-05-09 12:16 27.40546 106.83133 34240 ft 385 kts 247°
2026-05-09 12:16 27.38140 106.77764 34240 ft 385 kts 247°
2026-05-09 12:17 27.35737 106.72409 34240 ft 385 kts 247°
2026-05-09 12:17 27.33315 106.67045 34242 ft 386 kts 247°
2026-05-09 12:18 27.30880 106.61655 34243 ft 387 kts 247°
2026-05-09 12:18 27.28450 106.56290 34245 ft 387 kts 247°
2026-05-09 12:19 27.26009 106.50902 34245 ft 386 kts 247°
2026-05-09 12:19 27.23567 106.45530 34251 ft 386 kts 247°
2026-05-09 12:20 27.21127 106.40162 34259 ft 387 kts 247°
2026-05-09 12:20 27.18288 106.33918 34272 ft 387 kts 246°
2026-05-09 12:21 27.16257 106.29445 34276 ft 387 kts 246°
2026-05-09 12:21 27.13793 106.24039 34279 ft 388 kts 246°
2026-05-09 12:22 27.11340 106.18661 34280 ft 388 kts 246°
2026-05-09 12:22 27.08895 106.13309 34284 ft 388 kts 246°
2026-05-09 12:23 27.06511 106.07903 34285 ft 386 kts 249°
2026-05-09 12:23 27.04554 106.02349 34286 ft 383 kts 253°
2026-05-09 12:24 27.03048 105.96626 34287 ft 383 kts 257°
2026-05-09 12:24 27.01901 105.90815 34289 ft 383 kts 258°
2026-05-09 12:25 27.00775 105.84970 34293 ft 384 kts 259°
2026-05-09 12:25 26.99654 105.79127 34302 ft 385 kts 259°
2026-05-09 12:26 26.98534 105.73274 34309 ft 385 kts 259°
2026-05-09 12:26 26.97411 105.67418 34314 ft 385 kts 259°
2026-05-09 12:27 26.96286 105.61556 34321 ft 385 kts 258°
2026-05-09 12:27 26.95158 105.55697 34323 ft 386 kts 259°
2026-05-09 12:28 26.94025 105.49812 34328 ft 386 kts 258°
2026-05-09 12:28 26.92894 105.43974 34330 ft 387 kts 259°
2026-05-09 12:29 26.91758 105.38100 34335 ft 386 kts 259°
2026-05-09 12:29 26.90611 105.32195 34338 ft 387 kts 258°
2026-05-09 12:30 26.89465 105.26313 34337 ft 387 kts 258°
2026-05-09 12:30 26.87752 105.17529 34350 ft 387 kts 258°
2026-05-09 12:31 26.86023 105.08718 34355 ft 387 kts 258°
2026-05-09 12:32 26.84867 105.02829 34361 ft 387 kts 258°
2026-05-09 12:32 26.83711 104.96977 34366 ft 387 kts 258°
2026-05-09 12:33 26.82552 104.91109 34368 ft 386 kts 258°
2026-05-09 12:33 26.81392 104.85247 34384 ft 386 kts 258°
2026-05-09 12:34 26.80222 104.79391 34394 ft 387 kts 258°
2026-05-09 12:34 26.79050 104.73545 34413 ft 388 kts 258°
2026-05-09 12:35 26.77498 104.67781 34418 ft 390 kts 250°
2026-05-09 12:35 26.75047 104.62384 34427 ft 393 kts 242°
2026-05-09 12:36 26.71709 104.57468 34430 ft 398 kts 233°
2026-05-09 12:36 26.67639 104.53264 34434 ft 404 kts 226°
2026-05-09 12:37 26.63274 104.49252 34423 ft 404 kts 225°
2026-05-09 12:37 26.58943 104.45306 34408 ft 405 kts 225°
2026-05-09 12:38 26.54554 104.41319 34401 ft 405 kts 225°
2026-05-09 12:38 26.50186 104.37357 34402 ft 405 kts 225°
2026-05-09 12:39 26.45800 104.33385 34405 ft 406 kts 225°
2026-05-09 12:39 26.41431 104.29434 34402 ft 406 kts 225°
2026-05-09 12:40 26.37031 104.25459 34406 ft 406 kts 225°
2026-05-09 12:40 26.32639 104.21495 34417 ft 406 kts 225°
2026-05-09 12:41 26.28244 104.17532 34421 ft 407 kts 224°
2026-05-09 12:41 26.23863 104.13585 34427 ft 407 kts 225°
2026-05-09 12:42 26.19449 104.09614 34433 ft 407 kts 224°
2026-05-09 12:42 26.15043 104.05655 34435 ft 407 kts 224°
2026-05-09 12:43 26.10623 104.01685 34435 ft 408 kts 224°
2026-05-09 12:43 26.06216 103.97734 34434 ft 407 kts 224°
2026-05-09 12:43 26.04040 103.95790 34422 ft 392 kts 225°
2026-05-09 12:44 26.01949 103.93922 34422 ft 375 kts 225°
2026-05-09 12:44 25.99977 103.92162 34419 ft 362 kts 225°
2026-05-09 12:44 25.98001 103.90390 34423 ft 360 kts 225°
2026-05-09 12:44 25.96170 103.88554 34402 ft 352 kts 236°
2026-05-09 12:45 25.94951 103.86249 34420 ft 344 kts 251°
2026-05-09 12:45 25.94383 103.83706 34423 ft 344 kts 263°
2026-05-09 12:45 25.94448 103.81038 34426 ft 347 kts 276°
2026-05-09 12:45 25.95547 103.77681 34424 ft 358 kts 295°
2026-05-09 12:46 25.96554 103.76151 34427 ft 366 kts 305°
2026-05-09 12:46 25.98535 103.74322 34430 ft 384 kts 321°
2026-05-09 12:46 26.01052 103.73174 34431 ft 404 kts 338°
2026-05-09 12:46 26.03947 103.72961 34427 ft 427 kts 358°
2026-05-09 12:47 26.06835 103.73862 34428 ft 449 kts 20°
2026-05-09 12:47 26.09487 103.75848 34458 ft 461 kts 32°
2026-05-09 12:47 26.11985 103.78131 34448 ft 465 kts 34°
2026-05-09 12:48 26.16918 103.82691 34444 ft 465 kts 34°
2026-05-09 12:48 26.19218 103.85279 34408 ft 474 kts 52°
2026-05-09 12:48 26.20658 103.88588 34436 ft 479 kts 74°
2026-05-09 12:48 26.21025 103.92242 34442 ft 477 kts 97°
2026-05-09 12:49 26.20286 103.95761 34448 ft 466 kts 120°
2026-05-09 12:49 26.18550 103.98718 34449 ft 446 kts 143°
2026-05-09 12:49 26.16148 104.00673 34449 ft 421 kts 165°
2026-05-09 12:49 26.13397 104.01461 34443 ft 394 kts 188°
2026-05-09 12:50 26.10771 104.01086 34448 ft 374 kts 205°
2026-05-09 12:50 26.08408 104.00011 34443 ft 364 kts 216°
2026-05-09 12:50 26.06352 103.98433 34436 ft 356 kts 227°
2026-05-09 12:51 26.02659 103.94724 34429 ft 357 kts 227°
2026-05-09 12:51 25.98852 103.91187 34426 ft 358 kts 225°
2026-05-09 12:52 25.95381 103.87343 34407 ft 346 kts 245°
2026-05-09 12:52 25.94528 103.84856 34420 ft 344 kts 258°
2026-05-09 12:52 25.94313 103.82230 34426 ft 347 kts 271°
2026-05-09 12:52 25.94744 103.79604 34425 ft 352 kts 284°
2026-05-09 12:53 25.95831 103.77156 34428 ft 361 kts 298°
2026-05-09 12:53 25.97577 103.75061 34431 ft 376 kts 313°
2026-05-09 12:53 25.99869 103.73580 34428 ft 394 kts 330°
2026-05-09 12:53 26.02610 103.72920 34429 ft 417 kts 348°
2026-05-09 12:54 26.05571 103.73314 34428 ft 439 kts 10°
2026-05-09 12:54 26.08376 103.74897 34444 ft 460 kts 30°
2026-05-09 12:54 26.10898 103.77115 34452 ft 465 kts 34°
2026-05-09 12:55 26.15837 103.81703 34443 ft 464 kts 33°
2026-05-09 12:55 26.20145 103.87082 34426 ft 478 kts 65°
2026-05-09 12:55 26.20984 103.90619 34442 ft 479 kts 87°
2026-05-09 12:56 26.20718 103.94264 34448 ft 471 kts 110°
2026-05-09 12:56 26.19390 103.97510 34450 ft 456 kts 133°
2026-05-09 12:56 26.17212 103.99946 34449 ft 434 kts 156°
2026-05-09 12:56 26.14567 104.01253 34447 ft 407 kts 178°
2026-05-09 12:57 26.11837 104.01342 34448 ft 381 kts 199°
2026-05-09 12:57 26.09346 104.00505 34448 ft 368 kts 212°
2026-05-09 12:57 26.07160 103.99137 34441 ft 358 kts 223°
2026-05-09 12:58 26.03471 103.95516 34430 ft 356 kts 227°
2026-05-09 12:58 25.99662 103.91924 34422 ft 358 kts 225°
2026-05-09 12:58 25.97717 103.90159 33920 ft 362 kts 225°
2026-05-09 12:59 25.95816 103.88351 33304 ft 372 kts 227°
2026-05-09 12:59 25.93905 103.86280 32671 ft 389 kts 230°
2026-05-09 12:59 25.92074 103.84045 32107 ft 396 kts 233°
2026-05-09 12:59 25.90357 103.81667 31561 ft 397 kts 236°
2026-05-09 13:00 25.88759 103.79133 31097 ft 398 kts 239°
2026-05-09 13:00 25.87348 103.76494 30630 ft 397 kts 245°
2026-05-09 13:00 25.86458 103.73641 30174 ft 398 kts 257°
2026-05-09 13:00 25.86212 103.70582 29721 ft 404 kts 269°
2026-05-09 13:01 25.86607 103.67473 29277 ft 410 kts 277°
2026-05-09 13:01 25.87188 103.64357 28816 ft 411 kts 276°
2026-05-09 13:01 25.87649 103.61244 28371 ft 412 kts 274°
2026-05-09 13:01 25.87984 103.58084 27936 ft 413 kts 272°
2026-05-09 13:02 25.88225 103.54903 27498 ft 414 kts 271°
2026-05-09 13:02 25.88403 103.51739 27064 ft 415 kts 270°
2026-05-09 13:02 25.88542 103.48557 26627 ft 417 kts 270°
2026-05-09 13:02 25.88662 103.45328 26189 ft 417 kts 270°
2026-05-09 13:03 25.88769 103.42115 25743 ft 415 kts 269°
2026-05-09 13:03 25.88865 103.38944 25311 ft 413 kts 269°
2026-05-09 13:03 25.88955 103.35784 24877 ft 411 kts 269°
2026-05-09 13:03 25.89042 103.32591 24442 ft 409 kts 269°
2026-05-09 13:04 25.89126 103.29501 24007 ft 400 kts 269°
2026-05-09 13:04 25.89205 103.26450 23575 ft 392 kts 269°
2026-05-09 13:04 25.89283 103.23482 23153 ft 384 kts 269°
2026-05-09 13:04 25.89358 103.20524 22735 ft 377 kts 269°
2026-05-09 13:05 25.89430 103.17657 22321 ft 370 kts 269°
2026-05-09 13:05 25.89500 103.14860 21924 ft 364 kts 270°
2026-05-09 13:05 25.89570 103.12077 21524 ft 359 kts 269°
2026-05-09 13:05 25.89563 103.09318 21121 ft 352 kts 265°
2026-05-09 13:06 25.89340 103.06638 20724 ft 347 kts 263°
2026-05-09 13:06 25.89074 103.03991 20323 ft 343 kts 263°
2026-05-09 13:06 25.88807 103.01409 19933 ft 339 kts 262°
2026-05-09 13:06 25.88327 102.98859 19529 ft 336 kts 255°
2026-05-09 13:07 25.87602 102.96398 19112 ft 333 kts 252°
2026-05-09 13:07 25.86847 102.93988 18697 ft 330 kts 252°
2026-05-09 13:07 25.86082 102.91607 18275 ft 328 kts 250°
2026-05-09 13:07 25.85105 102.89329 17858 ft 327 kts 243°
2026-05-09 13:08 25.83930 102.87171 17440 ft 325 kts 240°
2026-05-09 13:08 25.82742 102.85065 17027 ft 324 kts 240°
2026-05-09 13:08 25.81525 102.82948 16637 ft 321 kts 238°
2026-05-09 13:08 25.80174 102.81056 16446 ft 314 kts 231°
2026-05-09 13:09 25.78674 102.79324 16231 ft 306 kts 228°
2026-05-09 13:09 25.77182 102.77662 16084 ft 296 kts 228°
2026-05-09 13:09 25.75757 102.76084 15947 ft 286 kts 227°
2026-05-09 13:09 25.74407 102.74768 15816 ft 281 kts 221°
2026-05-09 13:10 25.72783 102.73498 15665 ft 283 kts 217°
2026-05-09 13:10 25.71143 102.72334 15512 ft 282 kts 216°
2026-05-09 13:10 25.69488 102.71173 15364 ft 281 kts 216°
2026-05-09 13:10 25.67816 102.70030 15212 ft 282 kts 213°
2026-05-09 13:11 25.66028 102.69057 15058 ft 283 kts 206°
2026-05-09 13:11 25.64184 102.68282 14907 ft 284 kts 203°
2026-05-09 13:11 25.62311 102.67573 14755 ft 285 kts 197°
2026-05-09 13:11 25.60331 102.67555 14592 ft 293 kts 167°
2026-05-09 13:12 25.58513 102.68657 14453 ft 301 kts 138°
2026-05-09 13:12 25.57371 102.70606 14319 ft 305 kts 109°
2026-05-09 13:12 25.56873 102.72883 14205 ft 305 kts 103°
2026-05-09 13:12 25.56422 102.75175 14076 ft 304 kts 103°
2026-05-09 13:13 25.55960 102.77447 13939 ft 302 kts 103°
2026-05-09 13:13 25.55488 102.79699 13802 ft 301 kts 104°
2026-05-09 13:13 25.55005 102.81966 13661 ft 300 kts 104°
2026-05-09 13:13 25.54527 102.84186 13523 ft 298 kts 104°
2026-05-09 13:14 25.54047 102.86401 13386 ft 297 kts 104°
2026-05-09 13:14 25.53560 102.88641 13248 ft 296 kts 104°
2026-05-09 13:16 25.50221 103.03938 12273 ft 288 kts 104°
2026-05-09 13:16 25.49754 103.06071 12127 ft 287 kts 104°
2026-05-09 13:16 25.49289 103.08176 11977 ft 278 kts 106°
2026-05-09 13:16 25.48551 103.10132 11828 ft 275 kts 123°
2026-05-09 13:17 25.47432 103.11829 11693 ft 273 kts 129°
2026-05-09 13:17 25.46236 103.13454 11548 ft 268 kts 130°
2026-05-09 13:17 25.45075 103.15024 11401 ft 259 kts 130°
2026-05-09 13:17 25.43950 103.16560 11247 ft 252 kts 130°
2026-05-09 13:18 25.42865 103.18052 11107 ft 251 kts 129°
2026-05-09 13:18 25.41654 103.19414 10937 ft 247 kts 152°
2026-05-09 13:18 25.40026 103.19873 10831 ft 243 kts 186°
2026-05-09 13:18 25.38437 103.19264 10843 ft 242 kts 214°
2026-05-09 13:19 25.37102 103.18127 10852 ft 243 kts 220°
2026-05-09 13:19 25.35824 103.16897 10840 ft 242 kts 221°
2026-05-09 13:19 25.34535 103.15675 10836 ft 242 kts 220°
2026-05-09 13:19 25.33244 103.14497 10834 ft 242 kts 219°
2026-05-09 13:20 25.31921 103.13326 10832 ft 242 kts 219°
2026-05-09 13:20 25.30603 103.12183 10830 ft 242 kts 218°
2026-05-09 13:20 25.29274 103.11042 10871 ft 235 kts 218°
2026-05-09 13:20 25.28019 103.09969 10728 ft 222 kts 218°
2026-05-09 13:21 25.26822 103.08946 10457 ft 215 kts 218°
2026-05-09 13:21 25.25658 103.07948 10194 ft 207 kts 218°
2026-05-09 13:21 25.24546 103.06995 9941 ft 200 kts 217°
2026-05-09 13:21 25.23458 103.06059 9690 ft 192 kts 217°
2026-05-09 13:22 25.22431 103.05177 9451 ft 184 kts 217°
2026-05-09 13:22 25.21460 103.04340 9247 ft 172 kts 217°
2026-05-09 13:22 25.20513 103.03525 9032 ft 171 kts 218°
2026-05-09 13:23 25.16890 103.00374 8166 ft 162 kts 219°
2026-05-09 13:23 25.16010 102.99616 7951 ft 161 kts 217°
2026-05-09 13:24 25.15113 102.98860 7740 ft 161 kts 218°
2026-05-09 13:24 25.14227 102.98089 7553 ft 160 kts 218°
2026-05-09 13:24 25.13356 102.97340 7360 ft 160 kts 218°
2026-05-09 13:24 25.12473 102.96581 7165 ft 159 kts 218°
2026-05-09 13:25 25.11603 102.95828 6957 ft 157 kts 219°
2026-05-09 13:25 25.10818 102.95141 6913 ft 120 kts 218°
2026-05-09 13:25 25.10016 102.94437 6913 ft 36 kts 234°
2026-05-09 13:26 25.09922 102.94224 6913 ft 23 kts 251°
2026-05-09 13:26 25.09852 102.94075 6913 ft 21 kts 222°
2026-05-09 13:26 25.09739 102.93976 6913 ft 20 kts 218°
2026-05-09 13:26 25.09628 102.93882 6913 ft 19 kts 217°
2026-05-09 13:27 25.09526 102.93790 6913 ft 18 kts 216°
2026-05-09 13:27 25.09423 102.93703 6913 ft 18 kts 218°
2026-05-09 13:27 25.09354 102.93642 6913 ft 10 kts 218°
2026-05-09 13:27 25.09296 102.93593 6913 ft 10 kts 218°
2026-05-09 13:28 25.09238 102.93539 6913 ft 11 kts 220°
2026-05-09 13:28 25.09177 102.93483 6913 ft 11 kts 219°
2026-05-09 13:28 25.09113 102.93426 6913 ft 11 kts 217°
2026-05-09 13:28 25.09048 102.93370 6913 ft 12 kts 219°
2026-05-09 13:29 25.08983 102.93311 6913 ft 12 kts 219°
2026-05-09 13:29 25.08914 102.93252 6913 ft 12 kts 218°
2026-05-09 13:29 25.08912 102.93175 6913 ft 12 kts 307°
2026-05-09 13:29 25.08983 102.93079 6913 ft 17 kts 299°
2026-05-09 13:30 25.09056 102.92968 6913 ft 17 kts 308°
2026-05-09 13:30 25.09119 102.92883 6913 ft 10 kts 316°
2026-05-09 13:30 25.09181 102.92891 6913 ft 10 kts 40°
2026-05-09 13:30 25.09236 102.92941 6913 ft 10 kts 38°
2026-05-09 13:31 25.09292 102.92989 6913 ft 10 kts 38°
2026-05-09 13:31 25.09349 102.93038 6913 ft 10 kts 39°
2026-05-09 13:31 25.09406 102.93089 6913 ft 10 kts 37°
2026-05-09 13:31 25.09467 102.93141 6913 ft 11 kts 38°
2026-05-09 13:32 25.09529 102.93194 6913 ft 11 kts 38°
2026-05-09 13:32 25.09653 102.93303 6913 ft 11 kts 38°
2026-05-09 13:32 25.09717 102.93359 6913 ft 11 kts 39°
2026-05-09 13:33 25.09782 102.93414 6913 ft 11 kts 34°
2026-05-09 13:33 25.09834 102.93393 6913 ft 8 kts 305°
2026-05-09 13:33 25.09868 102.93333 6913 ft 9 kts 302°
2026-05-09 13:33 25.09907 102.93276 6913 ft 9 kts 312°
2026-05-09 13:34 25.09949 102.93219 6913 ft 9 kts 308°
2026-05-09 13:34 25.09969 102.93164 6913 ft 7 kts 259°
2026-05-09 13:34 25.09936 102.93124 6913 ft 7 kts 217°
2026-05-09 13:34 25.09895 102.93089 6913 ft 7 kts 218°
2026-05-09 13:35 25.09862 102.93061 6913 ft 2 kts 217°
2026-05-09 13:35 25.09858 102.93058 6913 ft 0 kts 218°